Time,TemperatureF,DewpointF,PressureIn,WindDirection,WindDirectionDegrees,WindSpeedMPH,WindSpeedGustMPH,Humidity,HourlyPrecipIn,Conditions,Clouds,dailyrainin,SoftwareType,DateUTC
2013-02-04 00:02:00,12.0,9.0,-100.00,NNE,25,2.0,6.0,89,0.00,,,0.00,,2013-02-04 06:02:00,
2013-02-04 00:11:00,11.0,9.0,-100.00,North,10,3.0,7.0,89,0.00,,,0.00,,2013-02-04 06:11:00,
2013-02-04 00:21:00,11.0,9.0,-100.00,NE,40,2.0,8.0,90,0.00,,,0.00,,2013-02-04 06:21:00,
2013-02-04 00:31:00,11.0,9.0,-100.00,NNE,20,3.0,6.0,90,0.00,,,0.00,,2013-02-04 06:31:00,
2013-02-04 00:41:00,11.0,9.0,-100.00,North,0,4.0,9.0,90,0.00,,,0.00,,2013-02-04 06:41:00,
2013-02-04 00:51:00,11.0,9.0,-100.00,North,10,6.0,9.0,90,0.00,,,0.00,,2013-02-04 06:51:00,
2013-02-04 01:02:00,11.0,9.0,-100.00,North,10,4.0,7.0,91,0.00,,,0.00,,2013-02-04 07:02:00,
2013-02-04 01:11:00,11.0,9.0,-100.00,North,10,3.0,7.0,91,0.00,,,0.00,,2013-02-04 07:11:00,
2013-02-04 01:21:00,11.0,9.0,-100.00,North,355,3.0,7.0,91,0.00,,,0.00,,2013-02-04 07:21:00,
2013-02-04 01:31:00,11.0,9.0,-100.00,North,0,3.0,6.0,91,0.00,,,0.00,,2013-02-04 07:31:00,
2013-02-04 01:41:00,11.0,9.0,-100.00,North,355,1.0,6.0,91,0.00,,,0.00,,2013-02-04 07:41:00,
2013-02-04 01:51:00,11.0,9.0,-100.00,North,5,3.0,7.0,91,0.00,,,0.00,,2013-02-04 07:51:00,
2013-02-04 02:01:00,11.0,9.0,-100.00,North,10,3.0,6.0,91,0.00,,,0.00,,2013-02-04 08:01:00,
2013-02-04 02:11:00,11.0,9.0,-100.00,North,355,3.0,7.0,91,0.00,,,0.00,,2013-02-04 08:11:00,
2013-02-04 02:21:00,11.0,9.0,-100.00,NNE,15,6.0,9.0,91,0.00,,,0.00,,2013-02-04 08:21:00,
2013-02-04 02:31:00,10.0,9.0,-100.00,North,0,5.0,9.0,91,0.00,,,0.00,,2013-02-04 08:31:00,
2013-02-04 02:42:00,10.0,9.0,-100.00,North,0,3.0,7.0,91,0.00,,,0.00,,2013-02-04 08:42:00,
2013-02-04 02:52:00,10.0,9.0,-100.00,North,5,3.0,5.0,91,0.00,,,0.00,,2013-02-04 08:52:00,
2013-02-04 03:02:00,9.0,7.0,-100.00,NNE,20,4.0,6.0,91,0.00,,,0.00,,2013-02-04 09:02:00,
2013-02-04 03:11:00,9.0,7.0,-100.00,North,355,2.0,4.0,91,0.00,,,0.00,,2013-02-04 09:11:00,
2013-02-04 03:21:00,8.0,7.0,-100.00,North,5,2.0,5.0,91,0.00,,,0.00,,2013-02-04 09:21:00,
2013-02-04 03:31:00,8.0,7.0,-100.00,NNW,330,2.0,4.0,92,0.00,,,0.00,,2013-02-04 09:31:00,
2013-02-04 03:41:00,8.0,5.0,-100.00,NNW,340,1.0,3.0,92,0.00,,,0.00,,2013-02-04 09:41:00,
2013-02-04 03:51:00,7.0,5.0,-100.00,NW,325,1.0,3.0,92,0.00,,,0.00,,2013-02-04 09:51:00,
2013-02-04 04:01:00,7.0,5.0,-100.00,NW,320,2.0,3.0,92,0.00,,,0.00,,2013-02-04 10:01:00,
2013-02-04 04:11:00,6.0,5.0,-100.00,NNW,340,2.0,4.0,92,0.00,,,0.00,,2013-02-04 10:11:00,
2013-02-04 04:21:00,6.0,5.0,-100.00,NNW,345,3.0,4.0,92,0.00,,,0.00,,2013-02-04 10:21:00,
2013-02-04 04:32:00,6.0,5.0,-100.00,NNW,335,2.0,4.0,93,0.00,,,0.00,,2013-02-04 10:32:00,
2013-02-04 04:41:00,6.0,5.0,-100.00,NNW,330,2.0,4.0,93,0.00,,,0.00,,2013-02-04 10:41:00,
2013-02-04 04:51:00,6.0,5.0,-100.00,North,350,4.0,6.0,93,0.00,,,0.00,,2013-02-04 10:51:00,
2013-02-04 05:02:00,7.0,5.0,-100.00,North,355,4.0,6.0,93,0.00,,,0.00,,2013-02-04 11:02:00,
2013-02-04 05:11:00,7.0,5.0,-100.00,North,5,4.0,9.0,93,0.00,,,0.00,,2013-02-04 11:11:00,
2013-02-04 05:22:00,7.0,7.0,-100.00,North,355,4.0,9.0,93,0.00,,,0.00,,2013-02-04 11:22:00,
2013-02-04 05:32:00,8.0,7.0,-100.00,North,0,4.0,8.0,93,0.00,,,0.00,,2013-02-04 11:32:00,
2013-02-04 05:42:00,8.0,7.0,-100.00,North,355,4.0,7.0,93,0.00,,,0.00,,2013-02-04 11:42:00,
2013-02-04 05:52:00,8.0,5.0,-100.00,North,350,4.0,7.0,92,0.00,,,0.00,,2013-02-04 11:52:00,
2013-02-04 06:02:00,7.0,5.0,-100.00,North,355,4.0,9.0,91,0.00,,,0.00,,2013-02-04 12:02:00,
2013-02-04 06:12:00,7.0,5.0,-100.00,North,0,4.0,6.0,90,0.00,,,0.00,,2013-02-04 12:12:00,
2013-02-04 06:21:00,7.0,5.0,-100.00,North,350,4.0,7.0,90,0.00,,,0.00,,2013-02-04 12:21:00,
2013-02-04 06:32:00,7.0,5.0,-100.00,North,350,4.0,9.0,89,0.00,,,0.00,,2013-02-04 12:32:00,
2013-02-04 06:42:00,7.0,5.0,-100.00,North,0,4.0,7.0,88,0.00,,,0.00,,2013-02-04 12:42:00,
2013-02-04 06:52:00,7.0,3.0,-100.00,North,355,3.0,5.0,87,0.00,,,0.00,,2013-02-04 12:52:00,
2013-02-04 07:02:00,6.0,3.0,-100.00,North,5,4.0,7.0,87,0.00,,,0.00,,2013-02-04 13:02:00,
2013-02-04 07:12:00,6.0,3.0,-100.00,North,350,2.0,7.0,87,0.00,,,0.00,,2013-02-04 13:12:00,
2013-02-04 07:21:00,6.0,3.0,-100.00,NNW,330,4.0,6.0,86,0.00,,,0.00,,2013-02-04 13:21:00,
2013-02-04 07:33:00,5.0,1.0,-100.00,NNW,335,4.0,6.0,86,0.00,,,0.00,,2013-02-04 13:33:00,
2013-02-04 07:42:00,6.0,1.0,-100.00,North,355,4.0,7.0,85,0.00,,,0.00,,2013-02-04 13:42:00,
2013-02-04 07:51:00,5.0,1.0,-100.00,NNW,335,3.0,9.0,85,0.00,,,0.00,,2013-02-04 13:51:00,
2013-02-04 08:03:00,5.0,1.0,-100.00,North,10,3.0,7.0,85,0.00,,,0.00,,2013-02-04 14:03:00,
2013-02-04 08:11:00,6.0,1.0,-100.00,NNW,335,4.0,7.0,84,0.00,,,0.00,,2013-02-04 14:11:00,
2013-02-04 08:22:00,6.0,1.0,-100.00,North,10,3.0,6.0,83,0.00,,,0.00,,2013-02-04 14:22:00,
2013-02-04 08:32:00,7.0,3.0,-100.00,North,0,3.0,6.0,83,0.00,,,0.00,,2013-02-04 14:32:00,
2013-02-04 08:42:00,7.0,3.0,-100.00,North,350,4.0,6.0,82,0.00,,,0.00,,2013-02-04 14:42:00,
2013-02-04 08:52:00,7.0,3.0,-100.00,North,350,5.0,8.0,80,0.00,,,0.00,,2013-02-04 14:52:00,
2013-02-04 09:03:00,7.0,1.0,-100.00,North,0,4.0,8.0,78,0.00,,,0.00,,2013-02-04 15:03:00,
2013-02-04 09:12:00,7.0,1.0,-100.00,North,0,4.0,8.0,77,0.00,,,0.00,,2013-02-04 15:12:00,
2013-02-04 09:23:00,9.0,3.0,-100.00,North,0,3.0,7.0,75,0.00,,,0.00,,2013-02-04 15:23:00,
2013-02-04 09:33:00,9.0,3.0,-100.00,North,5,4.0,7.0,73,0.00,,,0.00,,2013-02-04 15:33:00,
2013-02-04 09:43:00,10.0,3.0,-100.00,NW,325,2.0,6.0,72,0.00,,,0.00,,2013-02-04 15:43:00,
2013-02-04 09:52:00,11.0,3.0,-100.00,NNW,340,4.0,7.0,70,0.00,,,0.00,,2013-02-04 15:52:00,
2013-02-04 10:02:00,12.0,3.0,-100.00,North,0,2.0,6.0,69,0.00,,,0.00,,2013-02-04 16:02:00,
2013-02-04 10:11:00,13.0,5.0,-100.00,NNW,340,3.0,5.0,67,0.00,,,0.00,,2013-02-04 16:11:00,
2013-02-04 10:22:00,13.0,3.0,-100.00,NNE,15,1.0,6.0,65,0.00,,,0.00,,2013-02-04 16:22:00,
2013-02-04 10:32:00,13.0,3.0,-100.00,NNW,330,2.0,6.0,65,0.00,,,0.00,,2013-02-04 16:32:00,
2013-02-04 10:42:00,13.0,3.0,-100.00,North,0,2.0,5.0,63,0.00,,,0.00,,2013-02-04 16:42:00,
2013-02-04 10:51:00,13.0,3.0,-100.00,North,355,1.0,4.0,62,0.00,,,0.00,,2013-02-04 16:51:00,
2013-02-04 11:02:00,13.0,3.0,-100.00,NNW,340,2.0,6.0,61,0.00,,,0.00,,2013-02-04 17:02:00,
2013-02-04 11:11:00,13.0,3.0,-100.00,North,10,3.0,4.0,61,0.00,,,0.00,,2013-02-04 17:11:00,
2013-02-04 11:21:00,14.0,3.0,-100.00,NNE,20,1.0,4.0,60,0.00,,,0.00,,2013-02-04 17:21:00,
2013-02-04 11:31:00,15.0,3.0,-100.00,North,5,1.0,4.0,59,0.00,,,0.00,,2013-02-04 17:31:00,
2013-02-04 11:42:00,15.0,3.0,-100.00,West,260,2.0,4.0,59,0.00,,,0.00,,2013-02-04 17:42:00,
2013-02-04 11:51:00,16.0,5.0,-100.00,West,270,2.0,4.0,58,0.00,,,0.00,,2013-02-04 17:51:00,
2013-02-04 12:03:00,16.0,3.0,-100.00,SSW,200,1.0,3.0,57,0.00,,,0.00,,2013-02-04 18:03:00,
2013-02-04 12:11:00,17.0,3.0,-100.00,SE,125,1.0,6.0,55,0.00,,,0.00,,2013-02-04 18:11:00,
2013-02-04 12:22:00,17.0,3.0,-100.00,North,10,1.0,5.0,54,0.00,,,0.00,,2013-02-04 18:22:00,
2013-02-04 12:32:00,18.0,3.0,-100.00,North,355,2.0,4.0,53,0.00,,,0.00,,2013-02-04 18:32:00,
2013-02-04 12:41:00,18.0,3.0,-100.00,West,280,1.0,5.0,53,0.00,,,0.00,,2013-02-04 18:41:00,
2013-02-04 12:52:00,18.0,3.0,-100.00,NNW,345,3.0,4.0,51,0.00,,,0.00,,2013-02-04 18:52:00,
2013-02-04 13:02:00,17.0,1.0,-100.00,WNW,295,1.0,4.0,50,0.00,,,0.00,,2013-02-04 19:02:00,
2013-02-04 13:11:00,17.0,1.0,-100.00,South,190,1.0,4.0,50,0.00,,,0.00,,2013-02-04 19:11:00,
2013-02-04 13:22:00,19.0,3.0,-100.00,East,90,1.0,4.0,49,0.00,,,0.00,,2013-02-04 19:22:00,
2013-02-04 13:31:00,19.0,3.0,-100.00,East,90,1.0,5.0,48,0.00,,,0.00,,2013-02-04 19:31:00,
2013-02-04 13:41:00,18.0,1.0,-100.00,WSW,250,2.0,6.0,47,0.00,,,0.00,,2013-02-04 19:41:00,
2013-02-04 13:51:00,18.0,1.0,-100.00,WSW,250,3.0,4.0,47,0.00,,,0.00,,2013-02-04 19:51:00,
2013-02-04 14:02:00,18.0,1.0,-100.00,WNW,285,4.0,6.0,47,0.00,,,0.00,,2013-02-04 20:02:00,
2013-02-04 14:12:00,18.0,1.0,-100.00,WNW,295,5.0,9.0,48,0.00,,,0.00,,2013-02-04 20:12:00,
2013-02-04 14:21:00,18.0,1.0,-100.00,West,270,2.0,6.0,49,0.00,,,0.00,,2013-02-04 20:21:00,
2013-02-04 14:32:00,18.0,3.0,-100.00,SW,220,2.0,6.0,49,0.00,,,0.00,,2013-02-04 20:32:00,
2013-02-04 14:42:00,19.0,3.0,-100.00,SW,230,3.0,5.0,49,0.00,,,0.00,,2013-02-04 20:42:00,
2013-02-04 14:52:00,18.0,3.0,-100.00,SW,225,3.0,7.0,50,0.00,,,0.00,,2013-02-04 20:52:00,
2013-02-04 15:02:00,18.0,3.0,-100.00,West,265,2.0,6.0,51,0.00,,,0.00,,2013-02-04 21:02:00,
2013-02-04 15:11:00,18.0,3.0,-100.00,SSW,210,4.0,7.0,51,0.00,,,0.00,,2013-02-04 21:11:00,
2013-02-04 15:22:00,18.0,3.0,-100.00,West,260,2.0,7.0,50,0.00,,,0.00,,2013-02-04 21:22:00,
2013-02-04 15:31:00,18.0,3.0,-100.00,SE,145,1.0,4.0,50,0.00,,,0.00,,2013-02-04 21:31:00,
2013-02-04 15:42:00,18.0,3.0,-100.00,South,180,3.0,7.0,50,0.00,,,0.00,,2013-02-04 21:42:00,
2013-02-04 15:51:00,18.0,3.0,-100.00,WSW,245,1.0,6.0,51,0.00,,,0.00,,2013-02-04 21:51:00,
2013-02-04 16:02:00,18.0,3.0,-100.00,WNW,285,2.0,6.0,50,0.00,,,0.00,,2013-02-04 22:02:00,
2013-02-04 16:12:00,19.0,3.0,-100.00,SW,235,3.0,5.0,50,0.00,,,0.00,,2013-02-04 22:12:00,
2013-02-04 16:21:00,18.0,3.0,-100.00,SE,135,1.0,6.0,49,0.00,,,0.00,,2013-02-04 22:21:00,
2013-02-04 16:32:00,18.0,3.0,-100.00,West,280,2.0,4.0,49,0.00,,,0.00,,2013-02-04 22:32:00,
2013-02-04 16:41:00,18.0,3.0,-100.00,SSW,210,1.0,5.0,50,0.00,,,0.00,,2013-02-04 22:41:00,
2013-02-04 16:51:00,17.0,3.0,-100.00,WSW,255,2.0,5.0,51,0.00,,,0.00,,2013-02-04 22:51:00,
2013-02-04 17:01:00,17.0,3.0,-100.00,SW,225,2.0,5.0,52,0.00,,,0.00,,2013-02-04 23:01:00,
2013-02-04 17:11:00,17.0,3.0,-100.00,SW,215,3.0,6.0,52,0.00,,,0.00,,2013-02-04 23:11:00,
2013-02-04 17:21:00,16.0,3.0,-100.00,SW,220,4.0,7.0,53,0.00,,,0.00,,2013-02-04 23:21:00,
2013-02-04 17:32:00,16.0,1.0,-100.00,South,185,2.0,6.0,54,0.00,,,0.00,,2013-02-04 23:32:00,
2013-02-04 17:42:00,15.0,1.0,-100.00,SSW,210,4.0,7.0,55,0.00,,,0.00,,2013-02-04 23:42:00,
2013-02-04 17:52:00,15.0,3.0,-100.00,SSW,210,4.0,6.0,56,0.00,,,0.00,,2013-02-04 23:52:00,
2013-02-04 18:01:00,15.0,1.0,-100.00,SSW,210,2.0,6.0,57,0.00,,,0.00,,2013-02-05 00:01:00,
2013-02-04 18:11:00,15.0,3.0,-100.00,SSW,205,3.0,9.0,58,0.00,,,0.00,,2013-02-05 00:11:00,
2013-02-04 18:21:00,14.0,3.0,-100.00,SW,235,1.0,7.0,58,0.00,,,0.00,,2013-02-05 00:21:00,
2013-02-04 18:31:00,14.0,3.0,-100.00,SW,225,1.0,5.0,59,0.00,,,0.00,,2013-02-05 00:31:00,
2013-02-04 18:42:00,14.0,3.0,-100.00,SSW,210,4.0,7.0,59,0.00,,,0.00,,2013-02-05 00:42:00,
2013-02-04 18:51:00,14.0,3.0,-100.00,SSW,205,2.0,4.0,59,0.00,,,0.00,,2013-02-05 00:51:00,
2013-02-04 19:01:00,14.0,3.0,-100.00,South,190,3.0,7.0,60,0.00,,,0.00,,2013-02-05 01:01:00,
2013-02-04 19:11:00,14.0,3.0,-100.00,South,180,3.0,7.0,61,0.00,,,0.00,,2013-02-05 01:11:00,
2013-02-04 19:22:00,14.0,3.0,-100.00,South,175,2.0,7.0,62,0.00,,,0.00,,2013-02-05 01:22:00,
2013-02-04 19:32:00,14.0,3.0,-100.00,SW,215,4.0,7.0,62,0.00,,,0.00,,2013-02-05 01:32:00,
2013-02-04 19:42:00,13.0,3.0,-100.00,SSW,205,3.0,8.0,62,0.00,,,0.00,,2013-02-05 01:42:00,
2013-02-04 19:51:00,14.0,3.0,-100.00,SW,225,4.0,8.0,62,0.00,,,0.00,,2013-02-05 01:51:00,
2013-02-04 20:01:00,13.0,3.0,-100.00,SSW,200,2.0,7.0,62,0.00,,,0.00,,2013-02-05 02:01:00,
2013-02-04 20:11:00,14.0,3.0,-100.00,SSE,160,2.0,6.0,62,0.00,,,0.00,,2013-02-05 02:11:00,
2013-02-04 20:21:00,14.0,3.0,-100.00,SSE,150,4.0,7.0,62,0.00,,,0.00,,2013-02-05 02:21:00,
2013-02-04 20:31:00,14.0,3.0,-100.00,SSE,160,7.0,10.0,62,0.00,,,0.00,,2013-02-05 02:31:00,
2013-02-04 20:41:00,14.0,3.0,-100.00,SSE,165,7.0,11.0,61,0.00,,,0.00,,2013-02-05 02:41:00,
2013-02-04 20:52:00,14.0,3.0,-100.00,SSE,165,6.0,10.0,61,0.00,,,0.00,,2013-02-05 02:52:00,
2013-02-04 21:02:00,14.0,3.0,-100.00,South,175,5.0,14.0,61,0.00,,,0.00,,2013-02-05 03:02:00,
2013-02-04 21:11:00,14.0,3.0,-100.00,SSE,155,6.0,11.0,61,0.00,,,0.00,,2013-02-05 03:11:00,
2013-02-04 21:21:00,14.0,3.0,-100.00,SSE,155,6.0,12.0,61,0.00,,,0.00,,2013-02-05 03:21:00,
2013-02-04 21:31:00,14.0,3.0,-100.00,SSE,160,5.0,9.0,62,0.00,,,0.00,,2013-02-05 03:31:00,
2013-02-04 21:42:00,14.0,3.0,-100.00,SSW,210,2.0,7.0,63,0.00,,,0.00,,2013-02-05 03:42:00,
2013-02-04 21:51:00,14.0,5.0,-100.00,South,180,4.0,8.0,64,0.00,,,0.00,,2013-02-05 03:51:00,
2013-02-04 22:01:00,14.0,5.0,-100.00,SSW,195,2.0,8.0,64,0.00,,,0.00,,2013-02-05 04:01:00,
2013-02-04 22:11:00,14.0,5.0,-100.00,SSE,160,5.0,9.0,65,0.00,,,0.00,,2013-02-05 04:11:00,
2013-02-04 22:21:00,14.0,5.0,-100.00,SSE,160,7.0,10.0,66,0.00,,,0.00,,2013-02-05 04:21:00,
2013-02-04 22:32:00,14.0,5.0,-100.00,SSE,150,6.0,10.0,68,0.00,,,0.00,,2013-02-05 04:32:00,
2013-02-04 22:42:00,13.0,7.0,-100.00,SSE,155,7.0,12.0,72,0.00,,,0.00,,2013-02-05 04:42:00,
2013-02-04 22:52:00,14.0,7.0,-100.00,SSE,155,8.0,12.0,75,0.00,,,0.00,,2013-02-05 04:52:00,
2013-02-04 23:02:00,13.0,9.0,-100.00,SSE,150,9.0,12.0,78,0.00,,,0.00,,2013-02-05 05:02:00,
2013-02-04 23:11:00,13.0,9.0,-100.00,SSE,155,9.0,12.0,81,0.00,,,0.00,,2013-02-05 05:11:00,
2013-02-04 23:21:00,13.0,10.0,-100.00,SSE,155,11.0,14.0,87,0.00,,,0.00,,2013-02-05 05:21:00,
2013-02-04 23:32:00,13.0,10.0,-100.00,SSE,155,12.0,15.0,89,0.00,,,0.00,,2013-02-05 05:32:00,
2013-02-04 23:42:00,13.0,12.0,-100.00,SSE,155,11.0,16.0,91,0.00,,,0.00,,2013-02-05 05:42:00,
2013-02-04 23:52:00,14.0,12.0,-100.00,SSE,155,11.0,14.0,92,0.00,,,0.00,,2013-02-05 05:52:00,